Time,TemperatureF,DewpointF,PressureIn,WindDirection,WindDirectionDegrees,WindSpeedMPH,WindSpeedGustMPH,Humidity,HourlyPrecipIn,Conditions,Clouds,dailyrainin,SolarRadiationWatts/m^2,SoftwareType,DateUTC
2013-04-29 00:21:00,28.0,14.0,-100.00,ENE,58,0.0,2.0,56,0.00,,,0.00,0.000000,,2013-04-29 08:21:00,
2013-04-29 00:31:00,28.0,14.0,-100.00,ENE,58,0.0,2.0,56,0.00,,,0.00,0.000000,,2013-04-29 08:31:00,
2013-04-29 00:42:00,28.0,14.0,-100.00,ENE,58,0.0,2.0,56,0.00,,,0.00,0.000000,,2013-04-29 08:42:00,
2013-04-29 00:51:00,28.0,14.0,-100.00,ENE,58,0.0,2.0,56,0.00,,,0.00,0.000000,,2013-04-29 08:51:00,
2013-04-29 01:12:00,26.0,16.0,-100.00,East,83,0.0,2.0,66,0.00,,,0.00,0.000000,,2013-04-29 09:12:00,
2013-04-29 01:21:00,26.0,16.0,-100.00,East,83,0.0,2.0,66,0.00,,,0.00,0.000000,,2013-04-29 09:21:00,
2013-04-29 01:32:00,26.0,16.0,-100.00,East,83,0.0,2.0,66,0.00,,,0.00,0.000000,,2013-04-29 09:32:00,
2013-04-29 01:42:00,26.0,16.0,-100.00,East,83,0.0,2.0,66,0.00,,,0.00,0.000000,,2013-04-29 09:42:00,
2013-04-29 01:52:00,26.0,16.0,-100.00,East,83,0.0,2.0,66,0.00,,,0.00,0.000000,,2013-04-29 09:52:00,
2013-04-29 02:12:00,26.0,18.0,-100.00,NNE,12,0.0,2.0,72,0.00,,,0.00,0.000000,,2013-04-29 10:12:00,
2013-04-29 02:23:00,26.0,18.0,-100.00,NNE,12,0.0,2.0,72,0.00,,,0.00,0.000000,,2013-04-29 10:23:00,
2013-04-29 02:32:00,26.0,18.0,-100.00,NNE,12,0.0,2.0,72,0.00,,,0.00,0.000000,,2013-04-29 10:32:00,
2013-04-29 02:42:00,26.0,18.0,-100.00,NNE,12,0.0,2.0,72,0.00,,,0.00,0.000000,,2013-04-29 10:42:00,
2013-04-29 02:52:00,26.0,18.0,-100.00,NNE,12,0.0,2.0,72,0.00,,,0.00,0.000000,,2013-04-29 10:52:00,
2013-04-29 03:12:00,26.0,20.0,-100.00,NNW,329,0.0,1.0,77,0.00,,,0.00,0.000000,,2013-04-29 11:12:00,
2013-04-29 03:21:00,26.0,20.0,-100.00,NNW,329,0.0,1.0,77,0.00,,,0.00,0.000000,,2013-04-29 11:21:00,
2013-04-29 03:32:00,26.0,20.0,-100.00,NNW,329,0.0,1.0,77,0.00,,,0.00,0.000000,,2013-04-29 11:32:00,
2013-04-29 03:41:00,26.0,20.0,-100.00,NNW,329,0.0,1.0,77,0.00,,,0.00,0.000000,,2013-04-29 11:41:00,
2013-04-29 03:52:00,26.0,20.0,-100.00,NNW,329,0.0,1.0,77,0.00,,,0.00,0.000000,,2013-04-29 11:52:00,
2013-04-29 04:12:00,24.0,18.0,-100.00,North,352,0.0,0.0,79,0.00,,,-99.99,0.000000,,2013-04-29 12:12:00,
2013-04-29 04:22:00,24.0,18.0,-100.00,North,352,0.0,0.0,79,0.00,,,-99.99,0.000000,,2013-04-29 12:22:00,
2013-04-29 04:31:00,24.0,18.0,-100.00,North,352,0.0,0.0,79,0.00,,,-99.99,0.000000,,2013-04-29 12:31:00,
2013-04-29 04:41:00,24.0,18.0,-100.00,North,352,0.0,0.0,79,0.00,,,-99.99,0.000000,,2013-04-29 12:41:00,
2013-04-29 04:51:00,24.0,18.0,-100.00,North,352,0.0,0.0,79,0.00,,,-99.99,0.000000,,2013-04-29 12:51:00,
2013-04-29 05:21:00,24.0,18.0,-100.00,NW,325,0.0,0.0,76,0.00,,,0.00,0.000000,,2013-04-29 13:21:00,
2013-04-29 05:31:00,24.0,18.0,-100.00,NW,325,0.0,0.0,76,0.00,,,0.00,0.000000,,2013-04-29 13:31:00,
2013-04-29 05:42:00,24.0,18.0,-100.00,NW,325,0.0,0.0,76,0.00,,,0.00,0.000000,,2013-04-29 13:42:00,
2013-04-29 05:52:00,24.0,18.0,-100.00,NW,325,0.0,0.0,76,0.00,,,0.00,0.000000,,2013-04-29 13:52:00,
2013-04-29 06:21:00,23.0,17.0,-100.00,NW,310,0.0,2.0,79,0.00,,,0.00,0.000000,,2013-04-29 14:21:00,
2013-04-29 06:32:00,23.0,17.0,-100.00,NW,310,0.0,2.0,79,0.00,,,0.00,0.000000,,2013-04-29 14:32:00,
2013-04-29 06:42:00,23.0,17.0,-100.00,NW,310,0.0,2.0,79,0.00,,,0.00,0.000000,,2013-04-29 14:42:00,
2013-04-29 06:51:00,23.0,17.0,-100.00,NW,310,0.0,2.0,79,0.00,,,0.00,0.000000,,2013-04-29 14:51:00,
2013-04-29 07:12:00,24.0,16.0,-100.00,North,2,0.0,1.0,72,0.00,,,-99.99,13.000000,,2013-04-29 15:12:00,
2013-04-29 07:21:00,24.0,16.0,-100.00,North,2,0.0,1.0,72,0.00,,,-99.99,13.000000,,2013-04-29 15:21:00,
2013-04-29 07:33:00,24.0,16.0,-100.00,North,2,0.0,1.0,72,0.00,,,-99.99,13.000000,,2013-04-29 15:33:00,
2013-04-29 07:42:00,24.0,16.0,-100.00,North,2,0.0,1.0,72,0.00,,,-99.99,13.000000,,2013-04-29 15:42:00,
2013-04-29 07:52:00,24.0,16.0,-100.00,North,2,0.0,1.0,72,0.00,,,-99.99,13.000000,,2013-04-29 15:52:00,
2013-04-29 08:23:00,25.0,17.0,-100.00,South,187,0.0,1.0,70,0.00,,,0.00,39.000000,,2013-04-29 16:23:00,
2013-04-29 08:32:00,25.0,17.0,-100.00,South,187,0.0,1.0,70,0.00,,,0.00,39.000000,,2013-04-29 16:32:00,
2013-04-29 08:42:00,25.0,17.0,-100.00,South,187,0.0,1.0,70,0.00,,,0.00,39.000000,,2013-04-29 16:42:00,
2013-04-29 08:52:00,25.0,17.0,-100.00,South,187,0.0,1.0,70,0.00,,,0.00,39.000000,,2013-04-29 16:52:00,
2013-04-29 09:12:00,31.0,20.0,-100.00,SSE,159,1.0,2.0,63,0.00,,,0.00,94.000000,,2013-04-29 17:12:00,
2013-04-29 09:22:00,31.0,20.0,-100.00,SSE,159,1.0,2.0,63,0.00,,,0.00,94.000000,,2013-04-29 17:22:00,
2013-04-29 09:32:00,31.0,20.0,-100.00,SSE,159,1.0,2.0,63,0.00,,,0.00,94.000000,,2013-04-29 17:32:00,
2013-04-29 09:42:00,31.0,20.0,-100.00,SSE,159,1.0,2.0,63,0.00,,,0.00,94.000000,,2013-04-29 17:42:00,
2013-04-29 09:52:00,31.0,20.0,-100.00,SSE,159,1.0,2.0,63,0.00,,,0.00,94.000000,,2013-04-29 17:52:00,
2013-04-29 10:13:00,38.0,22.0,-100.00,East,100,0.0,3.0,52,0.00,,,0.00,231.000000,,2013-04-29 18:13:00,
2013-04-29 10:22:00,38.0,22.0,-100.00,East,100,0.0,3.0,52,0.00,,,0.00,231.000000,,2013-04-29 18:22:00,
2013-04-29 10:31:00,38.0,22.0,-100.00,East,100,0.0,3.0,52,0.00,,,0.00,231.000000,,2013-04-29 18:31:00,
2013-04-29 10:41:00,38.0,22.0,-100.00,East,100,0.0,3.0,52,0.00,,,0.00,231.000000,,2013-04-29 18:41:00,
2013-04-29 10:51:00,38.0,22.0,-100.00,East,100,0.0,3.0,52,0.00,,,0.00,231.000000,,2013-04-29 18:51:00,
2013-04-29 11:11:00,41.0,15.0,-100.00,SSE,157,2.0,5.0,35,0.00,,,0.00,503.000000,,2013-04-29 19:11:00,
2013-04-29 11:21:00,41.0,15.0,-100.00,SSE,157,2.0,5.0,35,0.00,,,0.00,503.000000,,2013-04-29 19:21:00,
2013-04-29 11:31:00,41.0,15.0,-100.00,SSE,157,2.0,5.0,35,0.00,,,0.00,503.000000,,2013-04-29 19:31:00,
2013-04-29 11:41:00,41.0,15.0,-100.00,SSE,157,2.0,5.0,35,0.00,,,0.00,503.000000,,2013-04-29 19:41:00,
2013-04-29 11:51:00,41.0,15.0,-100.00,SSE,157,2.0,5.0,35,0.00,,,0.00,503.000000,,2013-04-29 19:51:00,
2013-04-29 12:11:00,45.0,14.0,-100.00,SE,129,3.0,6.0,28,0.00,,,-99.99,679.000000,,2013-04-29 20:11:00,
2013-04-29 12:21:00,45.0,14.0,-100.00,SE,129,3.0,6.0,28,0.00,,,-99.99,679.000000,,2013-04-29 20:21:00,
2013-04-29 12:32:00,45.0,14.0,-100.00,SE,129,3.0,6.0,28,0.00,,,-99.99,679.000000,,2013-04-29 20:32:00,
2013-04-29 12:42:00,45.0,14.0,-100.00,SE,129,3.0,6.0,28,0.00,,,-99.99,679.000000,,2013-04-29 20:42:00,
2013-04-29 12:51:00,45.0,14.0,-100.00,SE,129,3.0,6.0,28,0.00,,,-99.99,679.000000,,2013-04-29 20:51:00,
2013-04-29 13:21:00,47.0,13.0,-100.00,SSE,148,3.0,8.0,25,0.00,,,0.00,775.000000,,2013-04-29 21:21:00,
2013-04-29 13:33:00,47.0,13.0,-100.00,SSE,148,3.0,8.0,25,0.00,,,0.00,775.000000,,2013-04-29 21:33:00,
2013-04-29 13:42:00,47.0,13.0,-100.00,SSE,148,3.0,8.0,25,0.00,,,0.00,775.000000,,2013-04-29 21:42:00,
2013-04-29 13:53:00,47.0,13.0,-100.00,SSE,148,3.0,8.0,25,0.00,,,0.00,775.000000,,2013-04-29 21:53:00,
2013-04-29 14:23:00,48.0,13.0,-100.00,SSE,160,4.0,9.0,24,0.00,,,0.00,703.000000,,2013-04-29 22:23:00,
2013-04-29 14:32:00,48.0,13.0,-100.00,SSE,160,4.0,9.0,24,0.00,,,0.00,703.000000,,2013-04-29 22:32:00,
2013-04-29 14:42:00,48.0,13.0,-100.00,SSE,160,4.0,9.0,24,0.00,,,0.00,703.000000,,2013-04-29 22:42:00,
2013-04-29 14:52:00,48.0,13.0,-100.00,SSE,160,4.0,9.0,24,0.00,,,0.00,703.000000,,2013-04-29 22:52:00,
2013-04-29 15:11:00,48.0,14.0,-100.00,East,87,1.0,7.0,25,0.00,,,0.00,603.000000,,2013-04-29 23:11:00,
2013-04-29 15:22:00,48.0,14.0,-100.00,East,87,1.0,7.0,25,0.00,,,0.00,603.000000,,2013-04-29 23:22:00,
2013-04-29 15:32:00,48.0,14.0,-100.00,East,87,1.0,7.0,25,0.00,,,0.00,603.000000,,2013-04-29 23:32:00,
2013-04-29 15:42:00,48.0,14.0,-100.00,East,87,1.0,7.0,25,0.00,,,0.00,603.000000,,2013-04-29 23:42:00,
2013-04-29 15:52:00,48.0,14.0,-100.00,East,87,1.0,7.0,25,0.00,,,0.00,603.000000,,2013-04-29 23:52:00,
2013-04-29 16:21:00,46.0,16.0,-100.00,SW,220,5.0,10.0,29,0.00,,,0.00,391.000000,,2013-04-30 00:21:00,
2013-04-29 16:32:00,46.0,16.0,-100.00,SW,220,5.0,10.0,29,0.00,,,0.00,391.000000,,2013-04-30 00:32:00,
2013-04-29 16:41:00,46.0,16.0,-100.00,SW,220,5.0,10.0,29,0.00,,,0.00,391.000000,,2013-04-30 00:41:00,
2013-04-29 16:51:00,46.0,16.0,-100.00,SW,220,5.0,10.0,29,0.00,,,0.00,391.000000,,2013-04-30 00:51:00,
2013-04-29 17:21:00,45.0,18.0,-100.00,SW,235,3.0,10.0,33,0.00,,,0.00,342.000000,,2013-04-30 01:21:00,
2013-04-29 17:32:00,45.0,18.0,-100.00,SW,235,3.0,10.0,33,0.00,,,0.00,342.000000,,2013-04-30 01:32:00,
2013-04-29 17:41:00,45.0,18.0,-100.00,SW,235,3.0,10.0,33,0.00,,,0.00,342.000000,,2013-04-30 01:41:00,
2013-04-29 17:51:00,45.0,18.0,-100.00,SW,235,3.0,10.0,33,0.00,,,0.00,342.000000,,2013-04-30 01:51:00,
2013-04-29 18:21:00,46.0,19.0,-100.00,WSW,245,4.0,8.0,33,0.00,,,0.00,349.000000,,2013-04-30 02:21:00,
2013-04-29 18:31:00,46.0,19.0,-100.00,WSW,245,4.0,8.0,33,0.00,,,0.00,349.000000,,2013-04-30 02:31:00,
2013-04-29 18:41:00,46.0,19.0,-100.00,WSW,245,4.0,8.0,33,0.00,,,0.00,349.000000,,2013-04-30 02:41:00,
2013-04-29 18:51:00,46.0,19.0,-100.00,WSW,245,4.0,8.0,33,0.00,,,0.00,349.000000,,2013-04-30 02:51:00,
2013-04-29 19:21:00,44.0,17.0,-100.00,SW,218,3.0,12.0,34,0.00,,,0.00,321.000000,,2013-04-30 03:21:00,
2013-04-29 19:33:00,44.0,17.0,-100.00,SW,218,3.0,12.0,34,0.00,,,0.00,321.000000,,2013-04-30 03:33:00,
2013-04-29 19:42:00,44.0,17.0,-100.00,SW,218,3.0,12.0,34,0.00,,,0.00,321.000000,,2013-04-30 03:42:00,
2013-04-29 19:52:00,44.0,17.0,-100.00,SW,218,3.0,12.0,34,0.00,,,0.00,321.000000,,2013-04-30 03:52:00,
2013-04-29 22:21:00,35.0,15.0,-100.00,NNW,343,0.0,5.0,44,-99.99,,,0.00,18.000000,,2013-04-30 06:21:00,
2013-04-29 22:31:00,35.0,15.0,-100.00,NNW,343,0.0,5.0,44,-99.99,,,0.00,18.000000,,2013-04-30 06:31:00,
2013-04-29 22:41:00,35.0,15.0,-100.00,NNW,343,0.0,5.0,44,-99.99,,,0.00,18.000000,,2013-04-30 06:41:00,
2013-04-29 22:52:00,35.0,15.0,-100.00,NNW,343,0.0,5.0,44,-99.99,,,0.00,18.000000,,2013-04-30 06:52:00,
2013-04-29 23:21:00,32.0,17.0,-100.00,NNW,347,0.0,2.0,54,0.00,,,0.00,1.000000,,2013-04-30 07:21:00,
2013-04-29 23:31:00,32.0,17.0,-100.00,NNW,347,0.0,2.0,54,0.00,,,0.00,1.000000,,2013-04-30 07:31:00,
2013-04-29 23:41:00,32.0,17.0,-100.00,NNW,347,0.0,2.0,54,0.00,,,0.00,1.000000,,2013-04-30 07:41:00,
2013-04-29 23:52:00,32.0,17.0,-100.00,NNW,347,0.0,2.0,54,0.00,,,0.00,1.000000,,2013-04-30 07:52:00,